Hourly Weather Dzianisz

Today, 15 May, Saturday

Time Temperature Precipitation Wind Pressure Humidity
00:00 +7°C° 0 mm 1 mps 682 mmHg 97%
01:00 +7°C° 0 mm 1 mps 683 mmHg 97%
02:00 +7°C° 0 mm 1 mps 683 mmHg 97%
03:00 +7°C° 0 mm 1 mps 683 mmHg 97%
04:00 +7°C° 0 mm 1 mps 683 mmHg 97%
05:00 +7°C° 0 mm 0 mps 683 mmHg 93%
06:00 +8°C° 0 mm 0 mps 683 mmHg 89%
07:00 +9°C° 0 mm 0 mps 684 mmHg 86%
08:00 +11°C° 0.1 mm 0 mps 684 mmHg 77%
09:00 +12°C° 0.1 mm 0 mps 684 mmHg 68%
10:00 +15°C° 0.1 mm 1 mps 684 mmHg 59%
11:00 +15°C° 0.3 mm 1 mps 684 mmHg 61%
12:00 +15°C° 0.3 mm 1 mps 684 mmHg 63%
13:00 +15°C° 0.3 mm 1 mps 683 mmHg 64%
14:00 +14°C° 0.8 mm 1 mps 683 mmHg 70%
15:00 +14°C° 0.8 mm 1 mps 683 mmHg 76%
16:00 +13°C° 0.8 mm 1 mps 683 mmHg 81%
17:00 +12°C° 0.4 mm 1 mps 683 mmHg 85%
18:00 +11°C° 0.4 mm 1 mps 682 mmHg 89%
19:00 +10°C° 0.4 mm 1 mps 682 mmHg 92%
20:00 +10°C° 0.2 mm 1 mps 682 mmHg 93%
21:00 +9°C° 0.2 mm 1 mps 682 mmHg 94%
22:00 +9°C° 0.2 mm 1 mps 682 mmHg 94%
23:00 +8°C° 0 mm 1 mps 682 mmHg 95%

Tomorrow, 16 May, Sunday

Time Temperature Precipitation Wind Pressure Humidity
00:00 +8°C° 0 mm 1 mps 682 mmHg 95%
01:00 +8°C° 0 mm 1 mps 682 mmHg 95%
02:00 +8°C° 0 mm 1 mps 681 mmHg 95%
03:00 +8°C° 0 mm 1 mps 681 mmHg 94%
04:00 +8°C° 0 mm 1 mps 681 mmHg 94%
05:00 +9°C° 0.2 mm 1 mps 681 mmHg 93%
06:00 +9°C° 0.2 mm 1 mps 681 mmHg 91%
07:00 +10°C° 0.2 mm 1 mps 681 mmHg 90%
08:00 +10°C° 2 mm 1 mps 681 mmHg 91%
09:00 +10°C° 2 mm 1 mps 681 mmHg 93%
10:00 +10°C° 2 mm 1 mps 681 mmHg 94%
11:00 +10°C° 0.5 mm 1 mps 681 mmHg 91%
12:00 +10°C° 0.5 mm 1 mps 681 mmHg 89%
13:00 +11°C° 0.5 mm 1 mps 681 mmHg 86%
14:00 +11°C° 0.3 mm 1 mps 681 mmHg 88%
15:00 +10°C° 0.3 mm 1 mps 681 mmHg 90%
16:00 +10°C° 0.3 mm 1 mps 680 mmHg 92%
17:00 +9°C° 0.1 mm 1 mps 681 mmHg 93%
18:00 +9°C° 0.1 mm 1 mps 681 mmHg 95%
19:00 +8°C° 0.1 mm 1 mps 681 mmHg 96%
20:00 +7°C° 0 mm 1 mps 681 mmHg 96%
21:00 +7°C° 0 mm 1 mps 681 mmHg 96%
22:00 +6°C° 0 mm 1 mps 681 mmHg 96%
23:00 +6°C° 0 mm 1 mps 681 mmHg 95%

Day after tomorrow, 17 May, Monday

Time Temperature Precipitation Wind Pressure Humidity
00:00 +5°C° 0 mm 1 mps 681 mmHg 95%
01:00 +5°C° 0 mm 1 mps 681 mmHg 95%
02:00 +5°C° 0 mm 1 mps 681 mmHg 94%
03:00 +5°C° 0 mm 1 mps 681 mmHg 93%
04:00 +5°C° 0 mm 1 mps 681 mmHg 92%
05:00 +6°C° 0.1 mm 1 mps 681 mmHg 90%
06:00 +8°C° 0.1 mm 1 mps 681 mmHg 87%
07:00 +9°C° 0.1 mm 1 mps 681 mmHg 85%
08:00 +9°C° 0.8 mm 1 mps 681 mmHg 87%
09:00 +9°C° 0.8 mm 1 mps 681 mmHg 89%
10:00 +9°C° 0.8 mm 1 mps 681 mmHg 91%
11:00 +9°C° 0.3 mm 1 mps 681 mmHg 91%
12:00 +9°C° 0.3 mm 1 mps 681 mmHg 91%
13:00 +9°C° 0.3 mm 1 mps 681 mmHg 91%
14:00 +9°C° 0 mm 2 mps 681 mmHg 85%
15:00 +10°C° 0 mm 2 mps 681 mmHg 78%
16:00 +12°C° 0 mm 2 mps 681 mmHg 72%
17:00 +10°C° 0.1 mm 2 mps 681 mmHg 77%
18:00 +9°C° 0.1 mm 2 mps 681 mmHg 83%
19:00 +8°C° 0.1 mm 2 mps 682 mmHg 89%
20:00 +7°C° 0 mm 2 mps 682 mmHg 91%
21:00 +6°C° 0 mm 2 mps 682 mmHg 93%
22:00 +6°C° 0 mm 1 mps 682 mmHg 95%
23:00 +5°C° 0 mm 2 mps 682 mmHg 95%

18 May, Tuesday

Time Temperature Precipitation Wind Pressure Humidity
00:00 +4°C° 0 mm 2 mps 682 mmHg 95%
01:00 +4°C° 0 mm 2 mps 682 mmHg 95%
02:00 +5°C° 0 mm 1 mps 682 mmHg 95%
03:00 +5°C° 0 mm 1 mps 682 mmHg 95%
04:00 +5°C° 0 mm 1 mps 682 mmHg 95%
05:00 +6°C° 0 mm 1 mps 683 mmHg 88%
06:00 +7°C° 0 mm 2 mps 683 mmHg 81%
07:00 +8°C° 0 mm 2 mps 683 mmHg 74%
08:00 +9°C° 0.1 mm 2 mps 684 mmHg 72%
09:00 +9°C° 0.1 mm 3 mps 684 mmHg 70%
10:00 +10°C° 0.1 mm 3 mps 684 mmHg 67%
11:00 +10°C° 0.2 mm 3 mps 684 mmHg 66%
12:00 +10°C° 0.2 mm 4 mps 684 mmHg 65%
13:00 +11°C° 0.2 mm 4 mps 684 mmHg 63%
14:00 +11°C° 0.1 mm 3 mps 684 mmHg 62%
15:00 +11°C° 0.1 mm 3 mps 684 mmHg 61%
16:00 +11°C° 0.1 mm 3 mps 684 mmHg 61%
17:00 +10°C° 0.1 mm 2 mps 684 mmHg 70%
18:00 +8°C° 0.1 mm 2 mps 684 mmHg 78%
19:00 +8°C° 0.1 mm 1 mps 684 mmHg 87%
20:00 +7°C° 0 mm 1 mps 684 mmHg 90%
21:00 +6°C° 0 mm 1 mps 684 mmHg 92%
22:00 +5°C° 0 mm 1 mps 685 mmHg 94%
23:00 +5°C° 0 mm 1 mps 684 mmHg 95%

19 May, Wednesday

Time Temperature Precipitation Wind Pressure Humidity
00:00 +4°C° 0 mm 1 mps 684 mmHg 95%
01:00 +4°C° 0 mm 1 mps 684 mmHg 95%
02:00 +4°C° 0 mm 1 mps 684 mmHg 95%
03:00 +5°C° 0 mm 1 mps 684 mmHg 95%
04:00 +5°C° 0 mm 1 mps 684 mmHg 95%
05:00 +5°C° 0 mm 1 mps 684 mmHg 93%
06:00 +6°C° 0 mm 1 mps 685 mmHg 92%
07:00 +7°C° 0 mm 1 mps 685 mmHg 91%
08:00 +6°C° 0.1 mm 2 mps 685 mmHg 88%
09:00 +7°C° 0.1 mm 2 mps 685 mmHg 84%
10:00 +7°C° 0.1 mm 2 mps 686 mmHg 81%
11:00 +8°C° 0.1 mm 3 mps 686 mmHg 78%
12:00 +8°C° 0.1 mm 3 mps 685 mmHg 74%
13:00 +9°C° 0.1 mm 3 mps 685 mmHg 71%
14:00 +9°C° 0.1 mm 3 mps 685 mmHg 72%
15:00 +9°C° 0.1 mm 3 mps 685 mmHg 73%
16:00 +9°C° 0.1 mm 3 mps 686 mmHg 74%
17:00 +8°C° 0.1 mm 2 mps 686 mmHg 80%
18:00 +7°C° 0.1 mm 2 mps 686 mmHg 85%
19:00 +6°C° 0.1 mm 1 mps 686 mmHg 90%
20:00 +5°C° 0 mm 2 mps 686 mmHg 92%
21:00 +4°C° 0 mm 2 mps 686 mmHg 93%
22:00 +4°C° 0 mm 2 mps 686 mmHg 94%
23:00 +4°C° 0.1 mm 2 mps 686 mmHg 95%

20 May, Thursday

Time Temperature Precipitation Wind Pressure Humidity
00:00 +3°C° 0.1 mm 2 mps 686 mmHg 95%
01:00 +4°C° 0.1 mm 1 mps 687 mmHg 95%
02:00 +4°C° 0 mm 1 mps 687 mmHg 95%
03:00 +4°C° 0 mm 1 mps 687 mmHg 94%
04:00 +5°C° 0 mm 1 mps 687 mmHg 94%
05:00 +4°C° 0.1 mm 2 mps 687 mmHg 92%
06:00 +5°C° 0.1 mm 2 mps 687 mmHg 91%
07:00 +6°C° 0.1 mm 2 mps 688 mmHg 89%
08:00 +6°C° 0.1 mm 2 mps 688 mmHg 88%
09:00 +6°C° 0.1 mm 2 mps 688 mmHg 87%
10:00 +5°C° 0.1 mm 3 mps 689 mmHg 86%
11:00 +7°C° 0.2 mm 3 mps 689 mmHg 83%
12:00 +7°C° 0.2 mm 3 mps 689 mmHg 81%
13:00 +8°C° 0.2 mm 3 mps 689 mmHg 78%
14:00 +8°C° 0.2 mm 3 mps 689 mmHg 78%
15:00 +8°C° 0.2 mm 3 mps 689 mmHg 77%
16:00 +8°C° 0.2 mm 3 mps 689 mmHg 77%
17:00 +7°C° 0.1 mm 2 mps 689 mmHg 82%
18:00 +6°C° 0.1 mm 2 mps 689 mmHg 87%
19:00 +6°C° 0.1 mm 1 mps 689 mmHg 92%
20:00 +6°C° 0 mm 1 mps 689 mmHg 93%
21:00 +5°C° 0 mm 1 mps 690 mmHg 94%
22:00 +5°C° 0 mm 1 mps 690 mmHg 95%
23:00 +5°C° 0 mm 1 mps 690 mmHg 94%
Show more

We Need Your Consent

Meteoprog and our Service Providers may store and access personal data such as cookies, device identifiers or other similar technologies on your device and process such data to personalise content and ads, as well as provide social media features and to analyse the traffic.

  • Store and/or access information on your device

    Cookies, device identifiers or other information can be stored or accessed on your device for the purposes indicated above.

  • Personalised ads and content, ad and content measurement, audience insights, and products development

    Ads and content can be personalised based on a profile. More data can be added to better personalise ads and content. Ad and content performance can be measured. Insights about the audience who saw the ads and content can be derived. Such data can be used to develop or improve user’s experience, systems and software.

By clicking ‘I Agree’ you will allow the use of indicated cookies, device identifiers, web beacons or other similar technologies. Your settings can be changed in the browser on your device.

For certain purposes, legitimate interests may be relied on, rather than consent. You can read more about this in our Privacy and Cookie Policy.